Probability
6 0 0 0 0 0 0 0 0 0 0 0 0 0 0 0 0 0 0 0 0 0 3 3 3 3 0 0 3 0 13 10 6 6 0 0 0 0 0 0 0 0 0
3 0 0 0 0 0 0 0 0 0 0 0 0 0 0 0 0 0 0 0 0 0 0 3 0 0 0 0 3 6 3 6 3 3 0 0 0 0 0 0 0 0 0
0 0 0 0 0 0 0 0 0 0 0 0 0 0 0 0 0 0 0 0 0 0 0 0 0 0 0 0 3 6 10 6 3 0 0 0 0 0 0 0 0 0 0
3 0 0 0 0 0 0 0 0 0 0 0 0 0 0 0 0 0 0 0 0 0 0 0 0 0 0 0 0 0 0 6 0 0 0 0 0 0 0 0 0 0 0
3 3 0 0 0 0 0 0 0 0 0 0 0 0 0 0 0 0 0 0 0 0 0 0 0 0 0 0 0 0 0 3 3 3 0 0 0 0 0 0 0 0 0
0 0 0 0 0 0 0 0 0 0 0 0 0 0 0 0 0 0 0 0 0 0 0 0 0 0 0 0 0 0 0 0 3 0 0 0 0 0 0 0 0 0 0
0 0 0 0 0 0 0 0 0 0 0 0 0 0 0 0 0 0 0 0 0 0 0 0 0 0 0 0 0 0 0 0 0 0 0 0 0 0 0 0 0 0 0
0 0 0 0 0 0 0 0 0 0 0 0 0 0 0 0 0 0 0 0 0 0 0 0 0 0 0 0 0 0 0 0 0 0 0 0 0 0 0 0 0 0 0
0 0 0 0 0 0 0 0 0 0 0 0 0 0 0 0 0 0 0 0 0 0 0 0 0 0 0 0 0 0 0 0 0 0 0 0 0 0 0 0 0 0 0
0 0 0 0 0 0 0 0 0 0 0 0 0 0 0 0 0 0 0 0 0 0 0 0 0 0 0 0 0 0 0 0 0 0 0 0 0 0 0 0 0 0 0
0 0 0 0 0 0 0 0 0 0 0 0 0 0 0 0 0 0 0 0 0 0 0 0 0 0 0 0 0 0 0 0 0 0 0 0 0 0 0 0 0 0 0
0 0 0 0 0 0 0 0 0 0 0 0 0 0 0 0 0 0 0 0 0 0 0 0 0 0 0 0 0 0 0 0 0 0 0 0 0 0 0 0 0 0 0
0 0 0 0 0 0 0 0 0 0 0 0 0 0 0 0 0 0 0 0 0 0 0 0 0 0 0 0 0 0 0 0 0 0 0 0 0 0 0 0 0 0 0
0 0 0 0 0 0 0 0 0 0 0 0 0 0 0 0 0 0 0 0 0 0 0 0 0 0 0 0 0 0 0 0 0 0 0 0 0 0 0 0 0 0 0
0 0 0 0 0 0 0 0 0 0 0 0 0 0 0 0 0 0 0 0 0 0 0 0 0 0 0 0 0 0 0 0 0 0 0 0 0 0 0 0 0 0 0
0 0 0 0 0 0 0 0 0 0 0 0 0 0 0 0 0 0 0 0 0 0 0 0 0 0 0 0 0 0 0 0 0 0 0 0 0 0 0 0 0 0 0
0 0 0 0 0 0 0 0 0 0 0 0 0 0 0 0 0 0 0 0 0 0 0 0 0 0 0 0 0 0 0 0 0 0 0 0 0 0 0 0 0 0 0
0 0 0 0 0 0 0 0 0 0 0 0 0 0 0 0 0 0 0 0 0 0 0 0 0 0 0 0 0 0 0 0 0 0 0 0 0 0 0 0 0 0 0
0 0 0 0 0 0 0 0 0 0 0 0 0 0 0 0 0 0 0 0 0 0 0 0 0 0 0 0 0 0 0 0 0 0 0 0 0 0 0 0 0 0 0
0 0 0 0 0 0 0 0 0 0 0 0 0 0 0 0 0 0 0 0 0 0 0 0 0 0 0 0 0 0 0 0 0 0 0 0 0 0 0 0 0 0 0
0 0 0 0 0 0 0 0 0 0 0 0 0 0 0 0 0 0 0 0 0 0 0 0 0 0 0 0 0 0 0 0 0 0 0 0 0 0 0 0 0 0 0
0 0 0 0 0 0 0 0 0 0 0 0 0 0 0 0 0 0 0 0 0 0 0 0 0 0 0 0 0 0 0 0 0 0 0 0 0 0 0 0 0 0 0
0 0 0 0 0 0 0 0 0 0 0 0 0 0 0 0 0 0 0 0 0 0 0 0 0 0 0 0 0 0 0 0 0 0 0 0 0 0 0 0 0 0 0
0 0 0 0 0 0 0 0 0 0 0 0 0 0 0 0 0 0 0 0 0 0 0 0 0 0 0 0 0 0 0 0 0 0 0 0 0 0 0 0 0 0 0
0 0 0 0 0 0 0 0 0 0 0 0 0 0 0 0 0 0 0 0 0 0 0 0 0 0 0 0 0 0 0 0 0 0 0 0 0 0 0 0 0 0 0
0 0 0 0 0 0 0 0 0 0 0 0 0 0 0 0 0 0 0 0 0 0 0 0 0 0 0 0 0 0 0 0 0 0 0 0 0 0 0 0 0 0 0
Height
5820 5819 5818 5816 5815 5814 5813 5812 5811 5811 5810 5809 5809 5808 5807 5806 5806 5805 5805 5804 5804 5804 5804 5804 5804 5804 5804 5804 5804 5805 5805 5805 5805 5806 5806 5806 5807 5807 5808 5808 5808 5809 5809
5813 5812 5811 5810 5808 5807 5806 5805 5804 5803 5802 5801 5801 5800 5799 5798 5797 5796 5795 5795 5795 5795 5795 5794 5795 5795 5795 5795 5795 5795 5796 5796 5796 5797 5797 5798 5798 5799 5799 5800 5800 5801 5801
5806 5805 5804 5803 5801 5800 5799 5798 5796 5795 5794 5793 5792 5791 5790 5789 5788 5787 5786 5785 5785 5785 5785 5785 5785 5784 5784 5784 5785 5785 5785 5786 5787 5787 5788 5788 5789 5790 5790 5791 5792 5792 5793
5799 5798 5797 5796 5794 5793 5791 5790 5788 5787 5786 5785 5783 5782 5781 5779 5778 5777 5776 5775 5775 5775 5775 5775 5774 5774 5774 5774 5774 5774 5775 5775 5776 5777 5777 5778 5779 5779 5780 5781 5782 5783 5784
5792 5791 5790 5788 5786 5785 5783 5782 5780 5778 5777 5776 5775 5773 5772 5770 5769 5767 5766 5765 5764 5764 5764 5764 5764 5763 5763 5763 5763 5763 5763 5764 5765 5766 5766 5767 5768 5769 5770 5771 5773 5774 5775
5785 5784 5783 5781 5779 5778 5776 5774 5772 5771 5769 5768 5766 5764 5762 5761 5759 5757 5756 5755 5755 5754 5753 5753 5753 5753 5753 5753 5753 5752 5752 5752 5753 5754 5755 5756 5756 5758 5759 5760 5762 5763 5765
5777 5776 5775 5773 5772 5770 5768 5766 5765 5763 5761 5759 5758 5756 5753 5751 5749 5747 5746 5745 5744 5744 5743 5743 5743 5743 5742 5742 5742 5741 5741 5741 5741 5742 5743 5744 5745 5746 5747 5749 5750 5752 5754
5769 5768 5767 5765 5764 5762 5760 5758 5757 5755 5752 5750 5749 5746 5744 5742 5740 5738 5736 5735 5734 5733 5733 5732 5732 5731 5731 5731 5731 5730 5730 5729 5730 5730 5731 5732 5733 5734 5735 5737 5739 5741 5742
5761 5760 5759 5757 5756 5754 5752 5750 5748 5746 5744 5742 5739 5737 5735 5733 5731 5729 5727 5725 5724 5722 5722 5721 5720 5720 5720 5720 5719 5719 5719 5718 5718 5719 5719 5720 5721 5722 5724 5725 5727 5728 5730
5753 5752 5750 5749 5747 5745 5743 5741 5739 5737 5735 5733 5730 5728 5725 5723 5722 5720 5718 5716 5714 5713 5711 5711 5710 5709 5709 5708 5708 5708 5707 5707 5707 5707 5708 5708 5709 5710 5711 5713 5714 5716 5718
5744 5743 5742 5740 5738 5737 5735 5733 5731 5729 5726 5724 5722 5719 5716 5714 5712 5710 5709 5707 5705 5703 5702 5701 5700 5699 5697 5697 5696 5696 5696 5695 5695 5695 5696 5696 5697 5698 5699 5700 5702 5703 5705
5736 5734 5733 5731 5729 5728 5726 5724 5722 5720 5718 5715 5713 5710 5708 5705 5703 5701 5699 5698 5696 5693 5691 5690 5689 5688 5686 5685 5684 5684 5683 5683 5683 5683 5683 5684 5685 5686 5687 5688 5689 5691 5692
5726 5725 5724 5722 5720 5718 5717 5715 5713 5711 5709 5706 5704 5701 5699 5696 5694 5691 5690 5688 5686 5684 5681 5680 5678 5677 5675 5674 5673 5672 5671 5671 5670 5670 5671 5671 5672 5673 5674 5675 5676 5677 5679
5717 5715 5714 5713 5711 5709 5708 5706 5704 5702 5700 5697 5695 5692 5690 5687 5684 5682 5680 5678 5676 5673 5671 5668 5667 5665 5664 5662 5661 5660 5659 5658 5657 5657 5657 5658 5658 5659 5660 5661 5662 5663 5665
5707 5706 5704 5703 5702 5700 5699 5697 5695 5693 5691 5688 5685 5683 5680 5677 5674 5672 5669 5667 5665 5663 5660 5657 5656 5654 5652 5650 5649 5648 5646 5645 5644 5644 5644 5644 5645 5646 5646 5647 5648 5649 5651
5697 5696 5694 5693 5692 5691 5689 5688 5686 5683 5681 5678 5676 5673 5670 5667 5664 5661 5658 5655 5653 5651 5649 5646 5643 5641 5639 5638 5636 5635 5634 5632 5631 5630 5630 5630 5631 5632 5632 5633 5634 5635 5636
5686 5685 5684 5683 5682 5681 5679 5678 5676 5673 5671 5668 5665 5663 5660 5657 5654 5650 5647 5644 5641 5638 5636 5634 5631 5629 5627 5625 5624 5622 5621 5619 5618 5617 5616 5617 5617 5617 5618 5618 5619 5620 5621
5676 5675 5674 5673 5672 5670 5669 5667 5665 5663 5660 5657 5655 5652 5649 5646 5643 5639 5636 5633 5630 5627 5625 5622 5619 5617 5615 5613 5611 5610 5608 5606 5605 5604 5603 5603 5602 5602 5603 5603 5604 5605 5606
5667 5666 5665 5663 5662 5660 5658 5656 5654 5652 5649 5647 5644 5641 5637 5634 5631 5628 5625 5621 5618 5615 5612 5610 5607 5605 5603 5601 5599 5597 5595 5594 5592 5590 5589 5589 5588 5588 5588 5588 5589 5590 5591
5658 5656 5655 5653 5652 5650 5648 5645 5643 5641 5638 5635 5632 5629 5626 5623 5620 5616 5613 5610 5606 5603 5600 5597 5595 5592 5590 5588 5586 5584 5583 5581 5579 5577 5576 5574 5574 5573 5573 5573 5574 5574 5575
5648 5647 5645 5643 5641 5639 5637 5634 5632 5630 5627 5624 5621 5618 5615 5611 5608 5605 5601 5598 5594 5591 5588 5585 5582 5580 5577 5575 5573 5571 5570 5568 5566 5564 5562 5560 5559 5558 5557 5557 5557 5557 5558
5638 5637 5635 5633 5631 5628 5626 5624 5621 5619 5616 5613 5610 5606 5603 5599 5596 5592 5589 5586 5583 5579 5576 5573 5570 5567 5565 5562 5560 5558 5556 5554 5553 5551 5548 5546 5544 5542 5540 5540 5539 5539 5539
5628 5626 5624 5622 5620 5617 5615 5612 5609 5607 5604 5601 5598 5594 5591 5587 5584 5580 5577 5573 5570 5567 5564 5561 5558 5554 5552 5549 5547 5545 5542 5539 5537 5535 5533 5531 5528 5526 5524 5522 5521 5520 5520
5618 5616 5613 5611 5609 5606 5603 5601 5598 5595 5592 5589 5586 5582 5579 5575 5572 5568 5565 5561 5558 5554 5551 5548 5545 5541 5538 5535 5532 5530 5527 5525 5522 5518 5516 5515 5512 5509 5506 5504 5502 5501 5500
5607 5605 5602 5600 5597 5595 5591 5589 5586 5583 5580 5577 5573 5570 5567 5563 5560 5556 5553 5550 5546 5542 5538 5535 5531 5528 5524 5521 5518 5515 5512 5509 5507 5502 5498 5496 5494 5492 5490 5486 5483 5481 5480
5596 5593 5591 5588 5585 5583 5580 5576 5573 5570 5567 5564 5561 5558 5554 5551 5547 5544 5540 5537 5533 5530 5526 5522 5519 5515 5511 5507 5503 5500 5496 5493 5489 5486 5482 5479 5476 5473 5473 5470 5465 5463 5461
Wind_Speed
31 31 31 31 32 32 33 33 33 34 34 35 35 35 35 35 36 37 38 38 38 38 38 38 39 39 39 39 39 38 38 38 37 37 37 37 36 36 35 35 34 34 33
31 31 31 32 32 32 33 34 34 35 36 36 37 37 37 37 37 38 38 39 40 40 40 39 39 39 40 40 40 40 40 40 39 39 39 38 38 38 37 37 36 35 35
32 32 32 33 33 33 34 35 36 36 37 38 38 39 39 39 40 40 40 40 40 41 41 40 40 39 39 40 41 42 42 41 41 41 40 40 40 40 40 39 38 37 36
32 33 33 34 34 35 35 36 37 37 38 38 38 39 40 40 40 40 40 40 41 40 41 41 42 41 41 41 42 42 43 43 42 42 42 43 43 42 41 40 40 39 38
33 34 34 35 35 35 35 36 36 37 37 38 38 39 40 40 41 41 41 41 41 41 41 42 42 42 42 43 43 42 43 44 44 43 43 44 44 44 43 42 41 40 39
35 35 35 35 35 35 36 36 36 37 37 38 39 39 40 41 42 42 41 41 41 42 42 42 42 42 43 43 44 44 44 44 44 44 45 44 44 45 43 43 43 42 41
35 35 35 35 36 36 35 35 36 36 37 37 38 39 40 40 40 40 40 41 41 42 42 43 43 43 43 44 44 45 46 46 45 45 45 45 45 45 44 44 43 43 43
35 35 35 35 35 35 35 35 36 36 37 37 37 38 38 38 38 39 39 39 40 40 41 42 43 43 43 43 44 44 44 45 46 45 45 44 45 44 45 45 44 44 43
35 35 35 35 35 36 36 37 37 37 37 37 37 37 37 37 37 37 37 37 37 37 39 40 42 42 42 42 43 44 45 45 45 45 44 44 44 45 45 46 46 46 46
35 36 36 36 37 37 37 37 37 37 37 37 37 37 37 37 36 36 37 38 39 39 37 37 39 40 41 42 44 45 45 44 45 46 45 44 44 45 45 46 46 47 47
36 37 37 37 37 37 37 37 37 37 37 37 36 36 36 36 36 36 36 38 39 40 40 39 39 40 41 42 43 44 44 44 44 45 45 45 45 46 46 45 45 47 48
38 38 38 37 37 37 36 36 36 37 37 36 36 36 36 37 37 37 37 37 38 39 40 40 40 40 40 41 42 42 44 45 46 46 46 46 46 47 47 46 47 47 48
38 38 37 37 37 37 37 36 36 36 36 36 36 36 37 37 38 38 38 38 38 39 39 40 41 41 41 41 42 42 43 45 46 48 48 49 49 48 48 48 48 48 49
38 38 38 38 37 37 37 36 36 36 36 37 37 37 37 37 37 37 38 38 39 39 39 40 40 41 42 42 42 42 43 44 45 46 48 49 49 49 50 49 49 49 50
38 38 38 37 37 37 36 36 36 37 37 37 37 37 38 38 38 39 39 40 41 41 41 42 42 43 43 44 43 43 44 45 45 46 47 48 48 49 49 49 48 48 48
39 38 38 37 37 37 37 38 38 38 38 38 38 38 38 39 39 40 40 41 42 42 42 42 42 43 43 43 43 43 43 44 45 45 46 47 47 48 48 48 49 49 49
38 38 37 37 37 38 38 39 39 39 39 39 39 39 39 40 40 41 41 42 42 42 43 42 43 43 43 42 41 41 41 42 42 44 45 47 48 49 49 49 50 50 49
37 37 37 38 38 39 39 39 39 39 39 40 40 41 41 41 42 42 42 42 42 42 43 43 43 43 42 41 41 41 41 41 42 43 44 45 47 49 49 50 49 49 49
36 36 37 37 38 38 38 39 39 39 39 40 40 41 42 42 42 42 42 42 42 43 43 42 42 42 41 41 41 41 41 41 42 43 44 46 47 49 49 50 50 50 50
35 36 37 37 37 38 39 39 40 40 40 41 41 41 42 42 42 42 42 42 43 43 43 42 42 42 42 42 42 42 42 42 43 43 44 46 47 48 49 50 51 52 52
36 36 37 37 38 38 39 40 40 41 41 41 41 41 42 42 42 42 42 42 42 42 42 42 42 42 42 42 42 43 44 45 46 46 46 46 47 49 50 51 52 53 54
37 38 38 38 38 39 39 40 41 41 42 42 42 42 43 43 43 43 43 43 43 42 42 42 42 43 43 43 44 45 46 46 47 47 48 49 49 50 51 52 53 54 55
38 38 38 38 39 39 40 40 41 42 42 42 42 42 42 43 43 44 44 44 43 43 43 43 43 43 44 45 46 47 48 48 49 49 50 50 52 52 52 53 54 56 57
38 38 39 39 39 40 41 41 42 42 42 42 43 43 43 43 43 44 44 43 43 43 44 44 44 44 45 46 47 48 49 49 50 51 51 51 52 53 54 55 55 56 56
39 39 39 40 40 41 42 42 42 42 43 43 43 43 43 43 44 44 44 43 43 44 44 44 44 45 46 47 48 49 49 49 50 51 52 52 52 52 53 54 54 54 54
40 40 40 41 41 42 42 43 43 43 43 43 43 43 44 44 44 44 44 44 43 43 44 44 45 46 46 47 48 49 49 50 50 51 51 52 52 52 51 51 52 53 53
Wind_Direction
279 281 282 283 284 283 282 282 282 281 281 282 283 283 282 281 280 280 279 278 278 278 278 277 277 276 275 274 274 273 273 272 272 272 271 271 270 269 269 269 270 270 270
279 280 282 283 285 284 283 283 283 283 282 282 282 283 282 282 281 281 280 279 277 277 277 277 276 275 274 273 273 273 272 272 272 271 270 269 270 269 269 268 268 268 269
280 281 283 285 285 286 285 284 283 283 283 283 283 282 282 282 281 280 280 279 278 277 276 275 274 274 274 273 273 273 272 271 271 270 269 269 269 268 268 267 267 267 268
281 283 284 285 286 286 286 285 284 283 283 283 283 283 282 282 282 281 281 280 278 276 275 274 273 273 272 273 273 272 272 270 270 270 269 268 267 267 267 266 266 266 266
282 283 285 286 287 288 287 287 287 285 284 283 284 283 283 283 282 281 281 279 277 276 275 275 275 275 273 272 272 271 269 269 268 268 268 268 267 266 265 264 264 264 265
282 284 285 286 287 287 288 288 287 287 286 286 286 285 285 285 284 282 281 280 278 277 276 276 276 275 274 273 271 270 269 268 268 267 268 268 266 265 264 263 262 262 263
282 283 284 285 286 287 287 288 288 289 289 288 288 288 287 287 285 283 282 281 279 277 277 276 275 275 274 272 271 270 270 269 269 268 268 268 265 264 262 262 262 261 262
282 283 284 285 286 287 287 288 289 291 291 290 290 289 289 288 286 284 283 282 281 279 278 276 275 275 275 272 270 271 271 271 270 270 269 267 266 265 264 262 261 261 260
282 283 284 284 285 286 286 288 289 290 290 291 291 290 290 288 286 285 284 282 281 282 280 278 276 274 274 273 273 273 272 271 270 269 269 267 266 265 264 263 261 260 259
282 283 284 284 285 286 286 287 289 289 289 290 291 291 290 289 287 285 285 283 282 282 282 280 279 277 276 275 274 272 272 271 270 268 267 267 266 265 263 262 261 260 259
281 283 284 284 285 286 287 287 288 288 289 290 291 292 292 291 289 287 285 284 283 281 281 282 282 280 278 276 275 273 272 271 271 270 267 266 266 264 263 263 262 261 260
281 283 284 284 285 286 287 287 288 289 290 290 291 291 292 292 291 289 286 285 284 282 282 282 282 281 281 279 277 275 273 271 270 269 268 267 267 266 264 264 264 263 262
280 281 282 284 284 285 286 286 287 289 290 291 292 292 292 292 292 291 288 286 286 284 282 282 281 280 280 279 277 276 274 273 272 270 269 268 267 266 265 264 263 262 262
279 280 281 282 282 284 285 286 287 289 290 291 291 292 292 292 292 292 290 288 287 285 284 283 282 281 280 279 278 277 275 275 273 271 270 269 267 266 264 264 263 262 261
278 279 281 282 282 283 284 286 287 288 289 290 291 292 292 292 292 292 291 289 287 285 284 284 283 282 282 281 280 279 278 276 275 273 271 269 268 267 266 265 264 263 261
278 279 280 281 282 283 284 286 287 287 289 290 291 291 292 292 292 292 292 290 288 286 285 285 284 283 282 281 281 280 278 276 274 273 272 270 269 267 266 265 265 264 262
278 278 279 280 281 283 284 285 286 287 289 290 290 291 291 291 292 292 292 291 290 288 287 287 286 284 283 281 280 280 279 277 276 275 272 270 267 266 267 266 265 264 262
279 279 279 280 282 283 284 285 286 287 289 290 290 290 291 291 292 292 292 292 291 290 289 288 287 285 283 282 282 281 280 280 279 276 274 272 270 267 266 266 265 264 263
280 280 280 282 283 284 284 285 286 287 288 289 290 290 291 291 292 292 292 291 292 291 290 289 287 285 284 284 283 282 281 281 280 278 276 274 272 269 268 267 267 265 264
281 281 282 283 284 284 285 285 286 287 288 288 289 290 291 292 292 292 291 292 292 292 291 289 288 286 284 284 283 283 283 283 282 281 280 277 275 272 269 268 267 266 265
282 282 284 284 284 285 285 286 286 287 288 288 289 290 291 292 292 291 292 292 293 292 291 289 288 287 285 286 285 284 284 284 283 282 281 279 277 275 272 270 268 267 266
283 283 284 285 285 286 287 287 288 288 289 288 289 289 290 290 291 291 292 293 293 293 292 290 289 287 286 286 287 286 286 284 283 282 281 281 280 278 276 273 271 270 268
283 284 284 285 286 287 287 288 289 289 289 289 289 290 290 291 291 291 293 293 292 292 292 291 290 289 287 287 287 287 288 287 285 284 282 281 280 280 279 277 274 272 270
284 284 285 285 286 287 287 288 290 290 290 290 290 290 291 291 292 292 292 292 291 291 292 292 292 291 290 289 289 289 289 288 287 286 284 283 281 281 280 278 276 273 271
286 286 286 286 286 287 288 288 290 290 290 289 289 290 290 291 292 292 292 292 291 292 292 293 293 293 291 291 291 291 290 289 288 287 286 285 283 282 281 280 278 275 271
287 287 287 288 288 288 288 289 290 290 290 290 289 290 290 291 292 292 292 292 292 293 293 294 294 294 294 294 293 293 292 291 290 289 287 287 285 284 283 281 279 276 273